{"data":{"norad_id":65099,"intl_designator":"2025-167X","name":"STARLINK-34815","alt_names":[],"object_type":"PAYLOAD","status":"ACTIVE","operator":null,"country":"US","launch_date":"2025-08-04","launch_site_code":"AFETR","launch_vehicle":null,"mission":null,"orbit_class":"UNKNOWN","rcs_meters":null,"size_class":null,"mass_kg":null,"dimensions":null,"purposes":["comms"],"wikipedia_slug":null,"has_3d_model":false,"image_url":null,"decayed_at":null,"tle_current":{"epoch":"2026-05-25T01:17:02.184000Z","epoch_age_seconds":80593,"freshness":"FRESH","line1":"1 65099U 25167X   26145.05349750  .00011935  00000+0  36380-3 0  9992","line2":"2 65099  53.1589  31.0920 0000945 118.5713 241.5384 15.34400640 45183","mean_motion":15.3440064,"eccentricity":9.45e-5,"inclination_deg":53.1589,"raan_deg":31.092,"arg_perigee_deg":118.5713,"mean_anomaly_deg":241.5384,"bstar":0.0003638,"rev_number":4518,"period_min":93.847718937344,"perigee_km":462.05487876995,"apogee_km":463.34779721583,"semimajor_km":6840.8383379929,"source":"CELESTRAK","updated_at":"2026-05-25T13:38:20.686828Z"}}}